Back to catalog

SL-8 R/B

AliveLEO
NORAD 19257·ROCKET BODY·🇷🇺 Russia

Launched Jun 21, 1988 from Plesetsk Cosmodrome

Loading…

Next Passes (next 24 hours)

TLE

FreshSource: Space-Track

Epoch: Sep 14, 2026, 14:42 UTC

1 19257U 88053B   26257.61307066  .00000157  00000-0  59228-4 0  9992
2 19257  74.0464 124.2149 0021160 258.3452 132.2293 14.38994877  3660

Track SL-8 R/B in real time with AllMySat

Download on the App Store